Lakeland Region, FL

3:43 AM EDT on April 22, 2018 (GMT -0400)
Lakeland Linder Regional

Weather History for KLAL - October, 2012

Change the Weather History Date:

Saturday, October 20, 2012

  Actual Average Record
Temperature  
Mean Temperature 72 °F -  
Max Temperature 82 °F 80 °F 91 °F (2005)
Min Temperature 62 °F 63 °F 46 °F (1996)
Cooling Degree Days 7    
Growing Degree Days 22 (Base 50)    
Moisture  
Dew Point 62 °F    
Average Humidity 74    
Maximum Humidity 100    
Minimum Humidity 35    
Precipitation  
Precipitation 0.00 in - - ()
Sea Level Pressure  
Sea Level Pressure 29.91 in    
Wind  
Wind Speed 3 mph (NNW)    
Max Wind Speed 10 mph    
Max Gust Speed -    
Visibility 11 miles    
Events Rain    
Averages and records for this station are not official NWS values.
T = Trace of Precipitation, MM = Missing Value Source: NWS Daily Summary

Daily Weather History Graph

Daily Weather History Graph

Search for Another Location

Airport or City:

Astronomy

Oct. 20, 2012 Rise Set
Actual Time 7:31 AM EDT 6:53 PM EDT
Civil Twilight 7:07 AM EDT 7:17 PM EDT
Nautical Twilight 6:40 AM EDT 7:44 PM EDT
Astronomical Twilight 6:13 AM EDT 8:11 PM EDT
Moon 12:52 PM EDT (10/20) 11:50 PM EDT (10/20)
Length of Visible Light 12h 09m
Length of Day
11h 21m
Waxing Crescent, 34% of the Moon is Illuminated
Oct 20
Waxing Crescent
Oct 21
First Quarter
Oct 29
Full
Nov 6
Last Quarter
Nov 13
New

Hourly Weather History & Observations

Time (EDT) Temp. Heat Index Dew Point Humidity Pressure Visibility Wind Dir Wind Speed Gust Speed Precip Events Conditions
12:15 AM 73.4 °F - 71.6 °F 94% 29.89 in 10.0 mi Calm Calm - N/A   Scattered Clouds
12:35 AM 71.6 °F - 69.8 °F 94% 29.89 in 10.0 mi Calm Calm - N/A   Clear
12:55 AM 71.6 °F - 69.8 °F 94% 29.89 in 10.0 mi Calm Calm - N/A   Clear
1:15 AM 71.6 °F - 69.8 °F 94% 29.88 in 10.0 mi Calm Calm - N/A   Clear
1:35 AM 71.6 °F - 69.8 °F 94% 29.88 in 5.0 mi Calm Calm - N/A   Clear
1:55 AM 71.6 °F - 69.8 °F 94% 29.89 in 7.0 mi Calm Calm - N/A   Clear
2:15 AM 71.6 °F - 69.8 °F 94% 29.88 in 5.0 mi Calm Calm - N/A   Clear
2:35 AM 71.6 °F - 69.8 °F 94% 29.88 in 7.0 mi Calm Calm - N/A   Clear
2:55 AM 69.8 °F - 69.8 °F 100% 29.87 in 5.0 mi Calm Calm - N/A   Clear
3:15 AM 71.6 °F - 69.8 °F 94% 29.87 in 7.0 mi Calm Calm - N/A   Clear
3:35 AM 71.6 °F - 69.8 °F 94% 29.87 in 10.0 mi Calm Calm - N/A   Clear
3:55 AM 69.8 °F - 69.8 °F 100% 29.87 in 10.0 mi Calm Calm - N/A   Scattered Clouds
4:15 AM 71.6 °F - 69.8 °F 94% 29.87 in 7.0 mi Calm Calm - N/A   Scattered Clouds
4:35 AM 71.6 °F - 69.8 °F 94% 29.87 in 10.0 mi Calm Calm - N/A   Overcast
4:55 AM 71.6 °F - 69.8 °F 94% 29.88 in 10.0 mi NNW 4.6 mph - N/A Rain Light Rain
5:15 AM 71.6 °F - 69.8 °F 94% 29.89 in 10.0 mi North 5.8 mph - N/A   Overcast
5:35 AM 71.6 °F - 69.8 °F 94% 29.89 in 10.0 mi North 5.8 mph - N/A   Overcast
5:50 AM 71.6 °F - 69.8 °F 94% 29.90 in 7.0 mi North 8.1 mph - N/A   Scattered Clouds
5:55 AM 71.6 °F - 69.8 °F 94% 29.90 in 10.0 mi North 8.1 mph - N/A   Overcast
6:15 AM 71.6 °F - 68.0 °F 88% 29.90 in 10.0 mi North 8.1 mph - N/A   Overcast
6:35 AM 69.8 °F - 64.4 °F 83% 29.91 in 10.0 mi North 9.2 mph - N/A   Overcast
6:50 AM 71.6 °F - 64.4 °F 78% 29.92 in 10.0 mi North 9.2 mph - N/A   Mostly Cloudy
7:50 AM 68.0 °F - 59.0 °F 73% 29.94 in 15.0 mi North 4.6 mph - N/A   Scattered Clouds
8:50 AM 71.6 °F - 53.6 °F 53% 29.95 in 15.0 mi North 6.9 mph - N/A   Scattered Clouds
9:50 AM 73.4 °F - 53.6 °F 50% 29.97 in 15.0 mi North 8.1 mph - N/A   Clear
10:50 AM 77.0 °F - 53.6 °F 44% 29.98 in 15.0 mi North 8.1 mph - N/A   Clear
11:53 AM 78.8 °F - 55.4 °F 44% 29.97 in 15.0 mi NNW 10.4 mph - N/A   Clear
12:55 PM 78.8 °F - 55.4 °F 44% 29.95 in 15.0 mi North 9.2 mph - N/A   Clear
1:50 PM 80.6 °F 80.3 °F 53.6 °F 39% 29.92 in 15.0 mi NW 4.6 mph - N/A   Clear
2:50 PM 82.4 °F 81.7 °F 55.4 °F 39% 29.90 in 15.0 mi NNW 8.1 mph - N/A   Clear
3:50 PM 82.4 °F 81.4 °F 53.6 °F 37% 29.89 in 15.0 mi NW 8.1 mph - N/A   Clear
4:50 PM 82.4 °F - 51.8 °F 35% 29.88 in 15.0 mi NNW 10.4 mph - N/A   Clear
5:50 PM 80.6 °F - 51.8 °F 37% 29.89 in 15.0 mi NW 4.6 mph - N/A   Clear
6:50 PM 75.2 °F - 51.8 °F 44% 29.90 in 15.0 mi NNW 8.1 mph - N/A   Clear
8:50 PM 66.2 °F - 48.2 °F 52% 29.94 in 10.0 mi NNW 5.8 mph - N/A   Clear
9:50 PM 64.4 °F - 51.8 °F 64% 29.96 in 10.0 mi Calm Calm - N/A   Clear
10:55 PM 62.6 °F - 51.8 °F 68% 29.99 in 10.0 mi Calm Calm - N/A   Clear
11:15 PM 62.6 °F - 50.0 °F 63% 29.99 in 10.0 mi Calm Calm - N/A   Clear
11:35 PM 62.6 °F - 51.8 °F 68% 29.99 in 10.0 mi Calm Calm - N/A   Clear
11:55 PM 62.6 °F - 51.8 °F 68% 29.98 in 10.0 mi Calm Calm - N/A   Clear